[[{"header":{"parameterUnit":"m.s-1","parameterCategory":2,"la1":30.2991,"la2":30.254,"lo1":-89.0895,"lo2":-89.0444,"dy":0.0017,"dx":0.0017,"nx":28,"ny":28,"refTime":"2024-08-02T03:00:00:Z","depth":"0","parameterNumber":2,"parameterNumberName":"U-component_of_CURRENTS"},"data":[0,0,0,0,0,0,0,0,0,0,0,0,0,0,0,0,0,0,0,0,0,0,0,0,0,0,0,0,0,0,0,0,0,0,0,0,0,0,0,0,0,0,0,0,0,0,0,0,0,0,0,0,0,0,0,0,0,0,0.4375,0.4377,0,0.4592,0.4594,0.4596,0.464,0.4639,0.4638,0.4637,0.4664,0.4666,0.4668,0,0,0,0,0,0,0,0,0,0,0,0,0,0.41,0.4104,0.4374,0.4378,0.4381,0.4592,0.4594,0.4597,0.464,0.4639,0.4638,0.4637,0.4664,0.4666,0.4668,0,0,0,0,0,0,0,0,0,0,0,0,0,0.4252,0.4105,0.4374,0.4433,0.4441,0.4592,0.4594,0.4597,0.4641,0.4639,0.4637,0.4636,0.4663,0.4666,0.4668,0.4715,0,0,0.4676,0.4677,0,0,0,0,0,0,0,0,0.4243,0.4261,0.4421,0.443,0.4439,0.4594,0.4509,0.4629,0.4641,0.4557,0.4637,0.4635,0.4629,0.4634,0.4671,0.4716,0.4717,0.4676,0.4678,0.4679,0.4679,0,0,0,0,0,0,0,0.4232,0.4252,0.4453,0.4425,0.4436,0.4486,0.4504,0.4532,0.459,0.4565,0.457,0.4606,0.4631,0.4669,0.4672,0.4717,0.4676,0.4678,0.468,0.4681,0.4793,0.4794,0,0,0,0,0,0,0.4217,0.4242,0.4447,0.4461,0.4343,0.4492,0.4512,0.454,0.4594,0.4605,0.4607,0.4608,0.4665,0.4669,0.4672,0.4776,0.4679,0.4681,0.4682,0.4791,0.4793,0.4794,0,0,0,0,0,0,0.421,0.4232,0.4438,0.4362,0.4393,0.4498,0.4529,0.4545,0.4588,0.463,0.4635,0.4635,0.4664,0.4669,0.4689,0.4774,0.4682,0.4684,0.4789,0.4792,0.4794,0.4951,0,0,0,0,0,0,0.4201,0.4228,0.4248,0.4361,0.4397,0.4547,0.4532,0.4551,0.4616,0.4618,0.4655,0.4657,0.4663,0.4685,0.4691,0.4776,0.4686,0.4788,0.479,0.4793,0.4944,0.4959,0.4971,0,0,0,0,0,0.419,0.4242,0.4248,0.4274,0.4419,0.455,0.4573,0.4638,0.4618,0.4663,0.4656,0.4656,0.4707,0.4688,0.4695,0.4783,0.4786,0.479,0.4793,0.4938,0.4956,0.4971,0,0,0,0,0,0,0.4157,0.4256,0.4263,0.4347,0.4443,0.456,0.4622,0.4643,0.4681,0.4669,0.4669,0.4673,0.4735,0.4714,0.4693,0.4816,0.475,0.4755,0.4858,0.4874,0.4887,0.4923,0.4689,0,0,0,0,0,0.4153,0.4202,0.431,0.438,0.4428,0.4515,0.4574,0.4616,0.4669,0.4686,0.4708,0.472,0.4759,0.4774,0.4803,0.486,0.4866,0.4917,0.4931,0.4942,0.4973,0.5047,0.5071,0.4805,0.4805,0.4805,0,0,0.4162,0.4224,0.4254,0.4374,0.445,0.4557,0.4546,0.4652,0.4737,0.468,0.4776,0.4774,0.4781,0.486,0.4885,0.4851,0.5017,0.4947,0.4958,0.4981,0.5053,0.508,0.5103,0.4807,0.4807,0.4807,0,0,0.4233,0.426,0.4335,0.4413,0.4534,0.4595,0.4621,0.4736,0.4781,0.4863,0.4848,0.4887,0.4936,0.498,0.4999,0.5095,0.5088,0.5094,0.5199,0.5271,0.5295,0.5316,0.5348,0.537,0.5098,0.5098,0.5098,0,0.425,0.4344,0.4384,0.4487,0.4557,0.461,0.4714,0.4795,0.4896,0.4929,0.4907,0.4998,0.5014,0.5113,0.5159,0.5139,0.5149,0.5146,0.5295,0.5315,0.5334,0.5361,0.5385,0.5106,0.5105,0.5104,0.5104,0,0.4386,0.4457,0.4518,0.4644,0.4721,0.4824,0.4924,0.4992,0.5026,0.5089,0.5181,0.5201,0.5245,0.5272,0.5258,0.5398,0.5351,0.5311,0.5266,0.5372,0.5391,0.5413,0.5118,0.5115,0.5112,0.511,0,0,0.445,0.4583,0.4608,0.4653,0.48,0.4872,0.5008,0.5136,0.52,0.5292,0.5382,0.5478,0.546,0.548,0.5468,0.5545,0.5699,0.5496,0.5496,0.5549,0.5836,0.5664,0.567,0.5684,0.5689,0.5693,0.5793,0,0.4555,0.4712,0.4767,0.491,0.4989,0.5052,0.5164,0.5267,0.5339,0.5439,0.5493,0.5571,0.5549,0.5563,0.565,0.5684,0.5763,0.5674,0.5706,0.5707,0.5561,0.5693,0.5343,0.5391,0.5813,0.5817,0.5819,0,0.4684,0.4756,0.4892,0.4988,0.503,0.5114,0.5234,0.5341,0.5484,0.5539,0.5625,0.5662,0.5799,0.5749,0.5904,0.5843,0.5869,0.5892,0.5894,0.57,0.5577,0.5353,0.5413,0.5281,0.5851,0.5849,0.5847,0,0.4678,0.4842,0.4923,0.497,0.5103,0.5151,0.5219,0.5352,0.5437,0.559,0.5656,0.5794,0.5863,0.5949,0.6011,0.5971,0.616,0.6093,0.5964,0.595,0.5642,0.5592,0.5596,0.6223,0.6222,0.6222,0.6222,0,0.476,0.4831,0.491,0.4954,0.5043,0.5121,0.5222,0.5318,0.5451,0.555,0.5681,0.5779,0.5924,0.6036,0.6071,0.6086,0.6207,0.6023,0.5987,0.568,0.5635,0.5492,0.5453,0.6226,0.6225,0.6224,0.6224,0,0.4777,0.4828,0.4918,0.5016,0.504,0.5096,0.5214,0.5293,0.541,0.5544,0.5602,0.5812,0.5942,0.6051,0.6195,0.6135,0.5989,0.6148,0.576,0.5676,0.5367,0.5347,0.518,0.5045,0.601,0.6006,0.6003,0,0.482,0.486,0.4938,0.4971,0.5016,0.509,0.5152,0.5268,0.5346,0.5545,0.5613,0.5793,0.5874,0.6008,0.5952,0.5961,0.5876,0.5652,0.5517,0.534,0.5296,0.516,0.5051,0.5171,0.5162,0.5154,0.5148,0,0.4899,0.4905,0.4957,0.4987,0.5033,0.5088,0.5162,0.5208,0.5339,0.5435,0.5544,0.5611,0.5697,0.5535,0.5545,0.5521,0.5336,0.5491,0.5419,0.4748,0.4491,0.4341,0.5113,0.508,0.5087,0.5092,0.5095,0.5098,0.4951,0.4969,0.498,0.4989,0.5034,0.502,0.4977,0.506,0.5104,0.5089,0.5314,0.5234,0.5167,0.5096,0.5063,0.475,0.4859,0.4559,0.4587,0.4497,0.4245,0.4858,0.4711,0.4716,0.4719,0.4723,0.4726,0,0.4959,0.4938,0.4977,0.4919,0.4877,0.4919,0.4926,0.4805,0.4731,0.4788,0.4772,0.4572,0.4371,0.432,0.4051,0.3869,0.3729,0.3786,0.3527,0.3497,0.412,0.396,0.3505,0.3505,0.3505,0.3506,0.3506,0.3506,0.4955,0.4907,0.4859,0.4715,0.4676,0.4478,0.4408,0.4277,0.4234,0.3981,0.3795,0.3779,0.3809,0.3635,0.338,0.33,0.3124,0.2891,0.3058,0.3497,0.3571,0.3642,0.3485,0.2938,0.2937,0.2204,0.2198,0.2194]},{"header":{"parameterUnit":"m.s-1","parameterCategory":2,"la1":30.2991,"la2":30.254,"lo1":-89.0895,"lo2":-89.0444,"dy":0.0017,"dx":0.0017,"nx":28,"ny":28,"refTime":"2024-08-02T03:00:00:Z","depth":"0","parameterNumber":3,"parameterNumberName":"V-component_of_CURRENTS"},"data":[0,0,0,0,0,0,0,0,0,0,0,0,0,0,0,0,0,0,0,0,0,0,0,0,0,0,0,0,0,0,0,0,0,0,0,0,0,0,0,0,0,0,0,0,0,0,0,0,0,0,0,0,0,0,0,0,0,0,0.0031,0.0031,0,-0.002,-0.0021,-0.0021,-0.0106,-0.0107,-0.0108,-0.0109,-0.0221,-0.0222,-0.0224,0,0,0,0,0,0,0,0,0,0,0,0,0,0.0009,0.001,0.0031,0.0031,0.0031,-0.002,-0.0021,-0.0022,-0.0105,-0.0107,-0.0108,-0.011,-0.022,-0.0222,-0.0224,0,0,0,0,0,0,0,0,0,0,0,0,0,-0.0009,0.001,0.0031,-0.0015,-0.0019,-0.0019,-0.0021,-0.0022,-0.0105,-0.0107,-0.0109,-0.0111,-0.0219,-0.0222,-0.0225,-0.0204,0,0,-0.0233,-0.0234,0,0,0,0,0,0,0,0,-0.0008,-0.0008,-0.0008,-0.0012,-0.0017,-0.0055,-0.0069,-0.0085,-0.0105,-0.0076,-0.0109,-0.0111,-0.0167,-0.0174,-0.0184,-0.0209,-0.0214,-0.0233,-0.0235,-0.0236,-0.0237,0,0,0,0,0,0,0,-0.0006,-0.0007,0.0008,-0.0008,-0.0013,-0.0049,-0.0053,-0.0073,-0.0114,-0.0079,-0.0084,-0.0084,-0.0171,-0.0181,-0.0187,-0.0216,-0.0233,-0.0236,-0.0237,-0.0238,-0.0191,-0.0188,0,0,0,0,0,0,0.0012,-0.0005,0.0009,0.0006,-0.0013,-0.0047,-0.0052,-0.0044,-0.0113,-0.0124,-0.0082,-0.0087,-0.0175,-0.0184,-0.0191,-0.0141,-0.0236,-0.0239,-0.024,-0.0193,-0.019,-0.0187,0,0,0,0,0,0,0.0012,0.0014,0.0011,0.0001,-0.0001,-0.0043,-0.0034,-0.0044,-0.0046,-0.0114,-0.0128,-0.0073,-0.0177,-0.0188,-0.019,-0.0148,-0.024,-0.0242,-0.0197,-0.0192,-0.0188,-0.0061,0,0,0,0,0,0,0.0011,0.0014,0.0021,0.0003,0.0,0.0031,-0.0032,-0.0043,-0.0041,-0.0049,-0.0111,-0.0124,-0.018,-0.0185,-0.0192,-0.0153,-0.0244,-0.02,-0.0195,-0.019,-0.0068,-0.0052,-0.0039,0,0,0,0,0,0.0011,0.0031,0.0022,0.0024,0.0013,0.0033,0.0029,-0.0011,-0.0039,-0.0023,-0.0065,-0.0121,-0.0156,-0.0185,-0.0194,-0.0155,-0.0203,-0.0196,-0.019,-0.0075,-0.0056,-0.0039,0,0,0,0,0,0,0.0018,0.0024,0.0014,0.0033,0.0043,0.0021,0.0026,0.001,-0.001,-0.002,-0.0091,-0.0105,-0.009,-0.0129,-0.0159,-0.0121,-0.0185,-0.018,-0.0095,-0.0077,-0.0062,-0.0013,-0.0247,0,0,0,0,0,0.0029,0.0048,0.0052,0.0069,0.0078,0.006,0.0061,0.0047,0.003,0.0018,-0.0019,-0.0052,-0.0068,-0.0079,-0.0102,-0.008,-0.0092,-0.0056,-0.0041,-0.0028,0.0009,0.0037,0.0058,-0.0165,-0.0165,-0.0166,0,0,0.0034,0.0043,0.005,0.0073,0.0071,0.0111,0.0055,0.0076,0.0112,0.0012,0.0041,-0.0002,-0.0049,-0.0031,-0.0026,-0.006,0.0027,-0.002,-0.0009,0.0022,0.0046,0.0068,0.0087,-0.0161,-0.0162,-0.0163,0,0,0.0069,0.007,0.0102,0.0127,0.0149,0.0151,0.0169,0.0172,0.0172,0.0203,0.0139,0.0139,0.0109,0.0092,0.0077,0.0171,0.0105,0.0151,0.0263,0.0289,0.0308,0.0324,0.0324,0.034,0.0158,0.0158,0.0159,0,0.0075,0.0122,0.0116,0.0165,0.0193,0.0182,0.0237,0.0251,0.0254,0.027,0.0232,0.0229,0.018,0.0217,0.0241,0.0207,0.0195,0.0191,0.0309,0.0325,0.0339,0.0335,0.0351,0.0165,0.0165,0.0164,0.0163,0,0.0141,0.0185,0.0212,0.0274,0.0304,0.0354,0.0381,0.0414,0.0415,0.0422,0.0465,0.0417,0.0416,0.04,0.0343,0.0423,0.0371,0.0322,0.0262,0.037,0.0358,0.0372,0.0175,0.0173,0.0171,0.0169,0,0,0.0149,0.024,0.0252,0.0304,0.037,0.0406,0.0482,0.0546,0.0601,0.0612,0.0686,0.0666,0.064,0.0625,0.0562,0.0585,0.0658,0.0503,0.0501,0.0501,0.0699,0.0634,0.0641,0.0618,0.0621,0.0624,0.0645,0,0.0208,0.0316,0.0346,0.046,0.0524,0.0552,0.0626,0.0681,0.0714,0.0784,0.0775,0.0811,0.0726,0.0726,0.0744,0.0689,0.0703,0.0657,0.0598,0.0597,0.0525,0.0659,0.0618,0.0632,0.0658,0.066,0.0661,0,0.0271,0.034,0.0453,0.0568,0.0597,0.0659,0.0771,0.0835,0.0923,0.0951,0.0999,0.0984,0.1038,0.094,0.0944,0.0913,0.0829,0.0777,0.0775,0.0688,0.056,0.0532,0.0655,0.0473,0.0681,0.068,0.0678,0,0.0294,0.0419,0.0511,0.0553,0.0675,0.0729,0.079,0.0881,0.0965,0.1062,0.1137,0.1171,0.1218,0.1156,0.106,0.1004,0.1051,0.095,0.0813,0.0805,0.0751,0.0733,0.0696,0.0953,0.0953,0.0953,0.0953,0,0.036,0.0438,0.0528,0.0588,0.0705,0.0764,0.0895,0.0957,0.1085,0.1224,0.1222,0.1343,0.1278,0.1287,0.1152,0.1057,0.1125,0.0881,0.0832,0.0791,0.0778,0.0597,0.0498,0.0954,0.0954,0.0954,0.0954,0,0.039,0.0448,0.0564,0.0684,0.0725,0.0805,0.0967,0.1083,0.117,0.136,0.141,0.1513,0.154,0.1438,0.136,0.119,0.0973,0.1004,0.0952,0.0898,0.0571,0.0481,0.0411,0.0344,0.0871,0.087,0.0869,0,0.0427,0.0488,0.0619,0.0698,0.0759,0.0883,0.1002,0.1119,0.1259,0.1476,0.1597,0.1679,0.1778,0.1638,0.1381,0.1164,0.0971,0.0916,0.0804,0.0598,0.0462,0.0384,0.0327,0.0773,0.0772,0.077,0.0769,0,0.0503,0.0534,0.0625,0.0777,0.0903,0.105,0.1217,0.1336,0.1516,0.1686,0.1908,0.1997,0.1881,0.1684,0.1362,0.1177,0.078,0.0878,0.0701,0.0439,0.0322,0.0216,0.0687,0.0757,0.0759,0.0759,0.076,0.0761,0.0557,0.0621,0.0736,0.0881,0.1031,0.1219,0.1343,0.1551,0.1782,0.2046,0.2117,0.2281,0.1931,0.1518,0.1243,0.0673,0.0697,0.045,0.0375,0.0327,0.0225,0.0661,0.0645,0.0646,0.0646,0.0647,0.0647,0,0.0639,0.0713,0.085,0.1025,0.1197,0.126,0.1507,0.1655,0.1931,0.2186,0.2371,0.2294,0.1853,0.1377,0.0613,0.0221,0.0101,0.0018,-0.0098,-0.0119,0.0301,0.0257,0.0114,0.0114,0.0114,0.0114,0.0115,0.0115,0.0693,0.0815,0.0876,0.1141,0.1272,0.1489,0.1622,0.1853,0.2064,0.2327,0.2435,0.2501,0.2113,0.0826,-0.0048,-0.0232,-0.0454,-0.0532,-0.061,-0.0351,-0.0316,-0.0284,-0.0349,-0.0616,-0.0617,-0.1009,-0.1013,-0.1016]}],[{"header":{"parameterUnit":"m.s-1","parameterCategory":2,"la1":30.2991,"la2":30.254,"lo1":-89.0895,"lo2":-89.0444,"dy":0.0017,"dx":0.0017,"nx":28,"ny":28,"refTime":"2024-08-02T03:00:00:Z","depth":"2","parameterNumber":2,"parameterNumberName":"U-component_of_CURRENTS"},"data":[0,0,0,0,0,0,0,0,0,0,0,0,0,0,0,0,0,0,0,0,0,0,0,0,0,0,0,0,0,0,0,0,0,0,0,0,0,0,0,0,0,0,0,0,0,0,0,0,0,0,0,0,0,0,0,0,0,0,0.2861,0.2858,0,0.2927,0.2931,0.2936,0.323,0.3233,0.3236,0.3239,0.33,0.3299,0.3298,0,0,0,0,0,0,0,0,0,0,0,0,0,0.2916,0.2918,0.2861,0.2858,0.2855,0.2927,0.2932,0.2937,0.3229,0.3233,0.3237,0.324,0.33,0.3299,0.3298,0,0,0,0,0,0,0,0,0,0,0,0,0,0.2968,0.2918,0.2862,0.2979,0.2987,0.2926,0.2932,0.2938,0.3228,0.3233,0.3238,0.3242,0.3301,0.3299,0.3297,0.3195,0,0,0.3292,0.3291,0,0,0,0,0,0,0,0,0.2965,0.2972,0.2965,0.297,0.2979,0.3038,0.2971,0.3009,0.3227,0.3181,0.3239,0.3244,0.3181,0.3189,0.3252,0.3198,0.3201,0.3292,0.3291,0.329,0.3289,0,0,0,0,0,0,0,0.2961,0.2969,0.293,0.296,0.2968,0.3,0.3019,0.2983,0.3187,0.3185,0.3196,0.3136,0.3192,0.3253,0.3254,0.3201,0.3292,0.329,0.3289,0.3288,0.3452,0.3457,0,0,0,0,0,0,0.2867,0.2966,0.2927,0.2928,0.2936,0.2993,0.3015,0.3049,0.3188,0.3201,0.3131,0.3148,0.3254,0.3256,0.3257,0.339,0.329,0.3288,0.3287,0.3447,0.3453,0.3459,0,0,0,0,0,0,0.2871,0.2868,0.2924,0.2909,0.2914,0.2983,0.3021,0.3047,0.3196,0.3139,0.3163,0.3258,0.3258,0.326,0.3322,0.3384,0.3287,0.3286,0.344,0.3449,0.3456,0.3493,0,0,0,0,0,0,0.2874,0.2872,0.2877,0.2906,0.2909,0.2966,0.3013,0.3043,0.3124,0.3152,0.3251,0.3258,0.3261,0.3326,0.3321,0.338,0.3284,0.3433,0.3444,0.3454,0.3485,0.3502,0.3516,0,0,0,0,0,0.2878,0.2852,0.2881,0.2872,0.2916,0.2964,0.298,0.3066,0.3126,0.3221,0.3282,0.3261,0.339,0.3326,0.332,0.338,0.3428,0.3441,0.3453,0.3478,0.3499,0.3516,0,0,0,0,0,0,0.2896,0.2875,0.2909,0.2889,0.2951,0.3001,0.3023,0.31,0.3231,0.3261,0.328,0.3291,0.3369,0.3384,0.3314,0.3476,0.3423,0.3435,0.3446,0.3464,0.3479,0.3563,0.3283,0,0,0,0,0,0.2879,0.2882,0.2891,0.2899,0.291,0.2993,0.3018,0.31,0.3171,0.3246,0.3262,0.3328,0.3398,0.3442,0.3465,0.3519,0.3537,0.3581,0.3596,0.3608,0.3685,0.3742,0.3767,0.3499,0.3499,0.3499,0,0,0.2887,0.2864,0.2873,0.2901,0.2951,0.3012,0.3041,0.3109,0.3219,0.3206,0.3332,0.3341,0.3422,0.3504,0.3547,0.3535,0.3689,0.3624,0.3632,0.3705,0.3757,0.3782,0.3805,0.3508,0.3506,0.3505,0,0,0.2892,0.2897,0.2911,0.2962,0.2994,0.3042,0.3079,0.3146,0.3257,0.3359,0.3382,0.3461,0.3529,0.3606,0.3667,0.3789,0.3743,0.3791,0.3949,0.4,0.4021,0.404,0.4045,0.4064,0.3825,0.3826,0.3826,0,0.2907,0.2949,0.2932,0.2971,0.302,0.3072,0.3169,0.3259,0.3347,0.3423,0.3428,0.3575,0.3614,0.3767,0.3853,0.3821,0.3822,0.3846,0.4013,0.4033,0.4052,0.4053,0.4073,0.3829,0.3828,0.3828,0.3828,0,0.2934,0.3001,0.3014,0.31,0.3155,0.3246,0.3321,0.3396,0.349,0.3574,0.3718,0.3758,0.3884,0.3892,0.3938,0.4092,0.4034,0.3985,0.3942,0.4079,0.4073,0.4093,0.3834,0.3832,0.3831,0.3831,0,0,0.2915,0.3026,0.3041,0.3145,0.3256,0.3313,0.3452,0.3611,0.369,0.3804,0.394,0.4108,0.4116,0.4194,0.4187,0.4261,0.438,0.4217,0.4218,0.4184,0.4461,0.4236,0.4235,0.433,0.4335,0.4339,0.438,0,0.2992,0.3109,0.3146,0.3332,0.343,0.3519,0.3639,0.3774,0.3854,0.3946,0.4089,0.4185,0.4238,0.4264,0.4375,0.4365,0.4448,0.4374,0.4374,0.4376,0.4125,0.4258,0.3924,0.3918,0.44,0.4403,0.4406,0,0.3019,0.3109,0.3288,0.3499,0.3545,0.3648,0.3814,0.3921,0.4056,0.4137,0.4271,0.4302,0.4503,0.4462,0.464,0.458,0.4593,0.4566,0.4564,0.4378,0.4193,0.3878,0.3937,0.444,0.4437,0.4435,0.4433,0,0.3025,0.3221,0.3382,0.3455,0.3654,0.3766,0.3874,0.3989,0.4073,0.4216,0.4254,0.4462,0.4544,0.4646,0.4707,0.4677,0.4803,0.4729,0.4532,0.4512,0.4253,0.4201,0.4858,0.4858,0.4858,0.4858,0.4858,0,0.3106,0.3234,0.34,0.3493,0.3658,0.3798,0.393,0.4027,0.4152,0.4222,0.435,0.4416,0.4597,0.4673,0.4733,0.4718,0.4856,0.4614,0.4538,0.425,0.42,0.4685,0.4665,0.4859,0.4859,0.4859,0.4859,0,0.3099,0.3228,0.3374,0.3588,0.3663,0.3756,0.3955,0.4031,0.4138,0.4204,0.4268,0.4444,0.4558,0.4641,0.4755,0.47,0.4707,0.4649,0.4281,0.4162,0.4371,0.4353,0.4453,0.4446,0.444,0.4435,0.4431,0,0.3103,0.3182,0.336,0.347,0.3587,0.3747,0.3864,0.4015,0.4077,0.42,0.4248,0.4365,0.44,0.4472,0.4434,0.4427,0.4594,0.4056,0.3964,0.443,0.4345,0.4336,0.4326,0.3622,0.3612,0.3603,0.3596,0,0.3136,0.3175,0.3339,0.3471,0.362,0.3699,0.3875,0.3861,0.3996,0.4033,0.4063,0.4072,0.413,0.3975,0.395,0.3918,0.4034,0.3873,0.4495,0.3754,0.3643,0.356,0.3579,0.3521,0.3528,0.3534,0.3538,0.3541,0.3185,0.3231,0.3425,0.3502,0.3652,0.3633,0.3567,0.3694,0.3675,0.3588,0.377,0.3651,0.3673,0.346,0.336,0.3284,0.3561,0.3398,0.3427,0.3464,0.3339,0.3221,0.2995,0.2999,0.3003,0.3006,0.3009,0,0.3248,0.3338,0.346,0.3517,0.351,0.3601,0.3579,0.3414,0.3245,0.3281,0.3231,0.2916,0.2799,0.2872,0.2611,0.2544,0.2558,0.2462,0.2479,0.2555,0.2623,0.2458,0.1879,0.1875,0.1872,0.1869,0,0,0.3373,0.3455,0.3405,0.3339,0.3347,0.3202,0.3068,0.2864,0.2809,0.2569,0.2492,0.2642,0.2745,0.2279,0.2206,0.2004,0.227,0.192,0.283,0.2927,0.299,0.3163,0.2993,0,0,0,0,0]},{"header":{"parameterUnit":"m.s-1","parameterCategory":2,"la1":30.2991,"la2":30.254,"lo1":-89.0895,"lo2":-89.0444,"dy":0.0017,"dx":0.0017,"nx":28,"ny":28,"refTime":"2024-08-02T03:00:00:Z","depth":"2","parameterNumber":3,"parameterNumberName":"V-component_of_CURRENTS"},"data":[0,0,0,0,0,0,0,0,0,0,0,0,0,0,0,0,0,0,0,0,0,0,0,0,0,0,0,0,0,0,0,0,0,0,0,0,0,0,0,0,0,0,0,0,0,0,0,0,0,0,0,0,0,0,0,0,0,0,0.0009,0.001,0,-0.0009,-0.001,-0.0011,-0.0096,-0.0097,-0.0099,-0.01,-0.0208,-0.021,-0.0212,0,0,0,0,0,0,0,0,0,0,0,0,0,-0.0037,-0.0036,0.0009,0.001,0.001,-0.0009,-0.001,-0.0011,-0.0096,-0.0097,-0.0099,-0.01,-0.0208,-0.021,-0.0212,0,0,0,0,0,0,0,0,0,0,0,0,0,-0.0041,-0.0036,0.0009,-0.0028,-0.0031,-0.0009,-0.001,-0.0011,-0.0096,-0.0097,-0.0099,-0.0101,-0.0207,-0.021,-0.0212,-0.0194,0,0,-0.022,-0.0222,0,0,0,0,0,0,0,0,-0.004,-0.004,-0.0023,-0.0025,-0.0028,-0.0044,-0.0065,-0.0074,-0.0095,-0.0081,-0.01,-0.0102,-0.0154,-0.0162,-0.0173,-0.0199,-0.0203,-0.0221,-0.0222,-0.0224,-0.0224,0,0,0,0,0,0,0,-0.004,-0.004,-0.0007,-0.0022,-0.0025,-0.0045,-0.0048,-0.0068,-0.0116,-0.0082,-0.0086,-0.0073,-0.0158,-0.017,-0.0176,-0.0205,-0.0221,-0.0223,-0.0225,-0.0226,-0.0272,-0.0272,0,0,0,0,0,0,-0.0017,-0.0039,-0.0007,-0.0007,-0.0028,-0.0042,-0.0046,-0.0045,-0.0114,-0.0123,-0.0071,-0.0076,-0.0164,-0.0173,-0.018,-0.018,-0.0224,-0.0226,-0.0228,-0.0273,-0.0272,-0.0272,0,0,0,0,0,0,-0.0018,-0.0014,-0.0006,-0.0016,-0.0015,-0.0038,-0.0036,-0.0044,-0.0063,-0.0103,-0.0116,-0.0082,-0.0166,-0.0176,-0.0206,-0.0184,-0.0227,-0.023,-0.0273,-0.0273,-0.0272,-0.0167,0,0,0,0,0,0,-0.002,-0.0015,-0.0008,-0.0014,-0.0013,0.0018,-0.0034,-0.0043,-0.0047,-0.0055,-0.0116,-0.0128,-0.0168,-0.0202,-0.0209,-0.0189,-0.0232,-0.0274,-0.0273,-0.0272,-0.0171,-0.0163,-0.0156,0,0,0,0,0,-0.0022,0.0001,-0.0008,-0.0003,-0.0003,0.002,0.0018,-0.0011,-0.0045,-0.0039,-0.0094,-0.0127,-0.0203,-0.0203,-0.0212,-0.0192,-0.0274,-0.0273,-0.0272,-0.0175,-0.0165,-0.0157,0,0,0,0,0,0,-0.0023,-0.0005,-0.0015,0.0008,0.002,0.0009,0.0016,-0.0004,-0.0041,-0.0057,-0.0118,-0.0132,-0.0151,-0.0187,-0.0186,-0.0206,-0.0244,-0.0245,-0.0167,-0.0159,-0.0151,-0.0119,-0.0234,0,0,0,0,0,-0.0013,0.0007,0.002,0.0038,0.0045,0.0029,0.0033,0.0021,-0.0004,-0.0024,-0.0061,-0.0111,-0.015,-0.0168,-0.0201,-0.0205,-0.0219,-0.0201,-0.0194,-0.0187,-0.0168,-0.0153,-0.0141,-0.0269,-0.0269,-0.0269,0,0,-0.0008,0.0007,0.0016,0.0041,0.0037,0.0071,0.0023,0.0041,0.0057,-0.0027,-0.0031,-0.0082,-0.0147,-0.0157,-0.0168,-0.0186,-0.0163,-0.0186,-0.0179,-0.0164,-0.0151,-0.0138,-0.0126,-0.0268,-0.0269,-0.0269,0,0,0.0029,0.0023,0.0058,0.0081,0.0106,0.0102,0.0112,0.0112,0.0092,0.0094,0.0027,-0.0004,-0.0053,-0.0089,-0.012,-0.0089,-0.0124,-0.011,-0.0042,-0.0027,-0.0015,-0.0005,-0.002,-0.0012,-0.0105,-0.0104,-0.0104,0,0.0036,0.0079,0.0073,0.0122,0.0148,0.0121,0.0169,0.0156,0.0147,0.0143,0.0106,0.0039,-0.0016,-0.0036,-0.0036,-0.0067,-0.0077,-0.0067,-0.0013,-0.0004,0.0005,-0.0013,-0.0005,-0.0099,-0.01,-0.01,-0.0101,0,0.0104,0.0144,0.0167,0.0217,0.0243,0.028,0.0281,0.0289,0.0261,0.0251,0.023,0.0157,0.0122,0.0091,0.0031,0.0056,0.0022,-0.0002,-0.0026,0.0025,0.0001,0.0008,-0.0092,-0.0094,-0.0095,-0.0097,0,0,0.0112,0.0198,0.0207,0.0253,0.0298,0.0329,0.0359,0.0382,0.0416,0.0371,0.04,0.0311,0.0274,0.0236,0.0163,0.016,0.0195,0.0108,0.0106,0.0111,0.0212,0.0136,0.0134,0.0186,0.0188,0.0189,0.0167,0,0.0166,0.0276,0.0299,0.0395,0.0452,0.0452,0.0489,0.0507,0.0509,0.0534,0.0442,0.0437,0.0326,0.0316,0.0294,0.0229,0.0218,0.0202,0.0146,0.0144,0.0087,0.0142,0.0159,0.0136,0.0172,0.0173,0.0174,0,0.0239,0.03,0.0408,0.0501,0.0522,0.0564,0.0635,0.0674,0.0691,0.0688,0.0666,0.0612,0.0568,0.0482,0.0402,0.0398,0.0317,0.0256,0.0254,0.0157,0.0081,0.0091,0.0145,0.0183,0.0182,0.0182,0.0181,0,0.0281,0.0383,0.0468,0.0503,0.0596,0.0626,0.0661,0.0715,0.0772,0.0796,0.0849,0.0773,0.0761,0.0656,0.05,0.0471,0.0421,0.0369,0.0218,0.021,0.02,0.0188,0.0333,0.0333,0.0333,0.0333,0.0333,0,0.0358,0.0428,0.0487,0.0547,0.0629,0.0676,0.0781,0.081,0.089,0.1005,0.0928,0.0989,0.0814,0.075,0.0581,0.0417,0.0483,0.0247,0.0213,0.0231,0.0222,0.0241,0.0231,0.0332,0.0333,0.0333,0.0333,0,0.0417,0.0466,0.0562,0.0639,0.0668,0.0724,0.0846,0.095,0.1004,0.1161,0.1176,0.1165,0.109,0.0892,0.0735,0.054,0.0377,0.0296,0.0304,0.027,0.0133,0.0128,0.0148,0.0145,0.0143,0.0142,0.014,0,0.0481,0.0535,0.0615,0.0667,0.07,0.0792,0.0893,0.0984,0.1127,0.1281,0.1379,0.1341,0.1326,0.1026,0.071,0.041,0.0375,0.0207,0.0146,0.0157,0.0122,0.012,0.0118,0.0169,0.0168,0.0167,0.0166,0,0.0563,0.0564,0.0609,0.0732,0.0828,0.0967,0.1118,0.125,0.1421,0.1526,0.1671,0.1653,0.1386,0.1076,0.0646,0.0439,0.025,0.0175,0.0236,0.0197,0.0171,0.0137,0.0137,0.0158,0.0159,0.0159,0.016,0.016,0.0579,0.0612,0.0675,0.0802,0.0929,0.1162,0.1281,0.1472,0.1679,0.1844,0.1846,0.1779,0.1464,0.0883,0.0548,0.0184,0.0199,0.0049,0.0056,0.0063,0.0053,0.0023,-0.002,-0.0021,-0.0021,-0.0021,-0.0021,0,0.0606,0.0669,0.0771,0.0939,0.1115,0.1178,0.1457,0.1576,0.1809,0.19,0.1932,0.1604,0.1271,0.0909,0.0358,0.0029,0.0025,-0.0069,0.0004,0.0014,0.0023,0.0013,-0.0072,-0.0073,-0.0074,-0.0075,0,0,0.0624,0.0715,0.08,0.1097,0.1221,0.1439,0.159,0.1747,0.184,0.1874,0.1802,0.1715,0.1328,0.0924,0.0517,0.0215,0.0181,0.0152,0.0223,0.0367,0.0379,0.0119,0.0118,0,0,0,0,0]}],[{"header":{"parameterUnit":"m.s-1","parameterCategory":2,"la1":30.2991,"la2":30.254,"lo1":-89.0895,"lo2":-89.0444,"dy":0.0017,"dx":0.0017,"nx":28,"ny":28,"refTime":"2024-08-02T03:00:00:Z","depth":"4","parameterNumber":2,"parameterNumberName":"U-component_of_CURRENTS"},"data":[0,0,0,0,0,0,0,0,0,0,0,0,0,0,0,0,0,0,0,0,0,0,0,0,0,0,0,0,0,0,0,0,0,0,0,0,0,0,0,0,0,0,0,0,0,0,0,0,0,0,0,0,0,0,0,0,0,0,0.122,0.122,0,0.1193,0.1192,0.1192,0.1195,0.1196,0.1196,0.1196,0.133,0.1333,0.1337,0,0,0,0,0,0,0,0,0,0,0,0,0,0.1294,0.1293,0.122,0.122,0.122,0.1193,0.1192,0.1192,0.1195,0.1196,0.1196,0.1196,0.1329,0.1333,0.1337,0,0,0,0,0,0,0,0,0,0,0,0,0,0.1265,0.1293,0.122,0.1217,0.1217,0.1193,0.1192,0.1192,0.1195,0.1196,0.1196,0.1197,0.1328,0.1333,0.1337,0.1356,0,0,0.1352,0.1354,0,0,0,0,0,0,0,0,0.1266,0.1262,0.1218,0.1218,0.1217,0.1197,0.1268,0.1255,0.1195,0.1204,0.1196,0.1197,0.13,0.1307,0.1299,0.1362,0.1368,0.1353,0.1356,0.1358,0.1359,0,0,0,0,0,0,0,0.1268,0.1263,0.121,0.1218,0.1217,0.1224,0.122,0.1265,0.1253,0.1203,0.1203,0.1199,0.1301,0.1294,0.1303,0.137,0.1352,0.1357,0.136,0.1362,0.1469,0.1469,0,0,0,0,0,0,0.1269,0.1265,0.1211,0.1209,0.1243,0.1222,0.1218,0.1204,0.1249,0.1254,0.1198,0.1199,0.1286,0.1297,0.1308,0.1428,0.1358,0.1362,0.1365,0.1469,0.1469,0.1469,0,0,0,0,0,0,0.127,0.1264,0.1212,0.1237,0.1231,0.122,0.1204,0.1203,0.1223,0.1243,0.1252,0.1224,0.1287,0.1301,0.138,0.143,0.1364,0.1369,0.1469,0.1469,0.1469,0.1609,0,0,0,0,0,0,0.1272,0.1264,0.1272,0.1236,0.1229,0.1193,0.1203,0.1202,0.1218,0.1219,0.1268,0.1278,0.1288,0.1373,0.1385,0.1436,0.1372,0.1469,0.1469,0.1469,0.1604,0.1613,0.1621,0,0,0,0,0,0.1275,0.1268,0.1273,0.1267,0.1234,0.1193,0.1189,0.1185,0.1219,0.1211,0.1274,0.1278,0.1379,0.1379,0.1393,0.1446,0.1469,0.1469,0.1469,0.16,0.1611,0.1621,0,0,0,0,0,0,0.1298,0.1267,0.1271,0.1255,0.1229,0.1193,0.1199,0.1205,0.1244,0.1271,0.1307,0.1322,0.14,0.1391,0.1389,0.1462,0.1413,0.1416,0.1508,0.1519,0.1527,0.1505,0.1376,0,0,0,0,0,0.1309,0.1305,0.1265,0.1258,0.125,0.1238,0.1234,0.1224,0.1244,0.1261,0.1313,0.1356,0.1401,0.1439,0.1461,0.1528,0.1554,0.1553,0.1562,0.157,0.1554,0.166,0.1679,0.1468,0.1468,0.1468,0,0,0.1319,0.1302,0.1302,0.1265,0.1257,0.1241,0.1237,0.1227,0.1236,0.1275,0.135,0.1399,0.1421,0.1489,0.152,0.1501,0.1647,0.157,0.1578,0.1556,0.1662,0.1683,0.1702,0.1468,0.1468,0.1468,0,0,0.1313,0.1321,0.1307,0.1294,0.1274,0.1262,0.1268,0.126,0.128,0.1325,0.1378,0.146,0.1508,0.1559,0.1582,0.1646,0.1687,0.1649,0.1699,0.1804,0.1824,0.1841,0.1937,0.1961,0.166,0.166,0.166,0,0.1325,0.1305,0.1297,0.1281,0.1287,0.128,0.1273,0.1279,0.1309,0.1357,0.1349,0.1497,0.1528,0.165,0.1665,0.1673,0.1738,0.1678,0.1824,0.1841,0.1857,0.1949,0.1975,0.1667,0.1666,0.1666,0.1665,0,0.1295,0.13,0.1296,0.1285,0.1288,0.1278,0.1283,0.1323,0.1359,0.1379,0.1499,0.1561,0.1653,0.1677,0.1692,0.1834,0.1849,0.1831,0.1816,0.1888,0.1979,0.2004,0.1677,0.1674,0.1672,0.1671,0,0,0.1245,0.127,0.1269,0.1283,0.1296,0.1283,0.1338,0.1371,0.1445,0.1482,0.1585,0.1671,0.1741,0.1768,0.184,0.1923,0.2106,0.1933,0.1936,0.2059,0.2363,0.2107,0.2109,0.2148,0.2152,0.2155,0.2398,0,0.1219,0.1214,0.1238,0.1254,0.1254,0.1306,0.1362,0.1412,0.1476,0.1576,0.1653,0.177,0.1766,0.1867,0.1948,0.2067,0.217,0.2041,0.2242,0.2247,0.2039,0.2127,0.2168,0.2416,0.2421,0.2425,0.2428,0,0.1167,0.1175,0.1198,0.1265,0.1275,0.1303,0.1428,0.1479,0.1615,0.1682,0.1814,0.1882,0.2044,0.2009,0.2248,0.2183,0.2277,0.2343,0.2355,0.207,0.2033,0.2314,0.2472,0.2469,0.2466,0.2463,0.246,0,0.112,0.1145,0.1178,0.1194,0.1267,0.1324,0.1387,0.1525,0.1612,0.1794,0.1884,0.2052,0.2173,0.2299,0.2393,0.2377,0.2611,0.2608,0.2471,0.2456,0.256,0.2538,0.2773,0.2772,0.2772,0.2771,0.277,0,0.1073,0.108,0.1166,0.1175,0.1231,0.1318,0.1435,0.1528,0.1713,0.1832,0.1964,0.208,0.2256,0.238,0.2456,0.2508,0.2677,0.2482,0.2496,0.2613,0.2594,0.2581,0.2555,0.278,0.2778,0.2776,0.2775,0,0.0982,0.1053,0.1069,0.1166,0.1207,0.1252,0.143,0.1523,0.1724,0.1893,0.1967,0.2164,0.2322,0.2436,0.2647,0.258,0.2661,0.2642,0.2758,0.2775,0.2441,0.242,0.2553,0.2546,0.254,0.2535,0.2531,0,0.0916,0.0925,0.1033,0.1067,0.1109,0.1213,0.1296,0.1502,0.1611,0.1917,0.1972,0.2192,0.2295,0.2399,0.2505,0.2619,0.2584,0.2618,0.2509,0.2415,0.2418,0.2406,0.2393,0.2521,0.252,0.2518,0.2516,0,0.0762,0.0832,0.0857,0.0945,0.1024,0.113,0.1267,0.1345,0.1611,0.1785,0.197,0.2069,0.2209,0.2304,0.2374,0.2446,0.258,0.2555,0.2568,0.2467,0.2378,0.2384,0.2379,0.2495,0.2498,0.25,0.2502,0,0.0654,0.0639,0.0726,0.0815,0.0889,0.1025,0.1126,0.128,0.1431,0.1763,0.1808,0.203,0.2206,0.2216,0.2283,0.2303,0.2294,0.2238,0.2268,0.2292,0.2073,0.1913,0.191,0,0,0,0,0,0.0564,0.0579,0.0604,0.0724,0.0795,0.0913,0.1087,0.1216,0.1455,0.1544,0.1696,0.1821,0.1944,0.2027,0.2002,0.2133,0.2271,0.2088,0.2214,0.2379,0.2403,0.2156,0,0,0,0,0,0,0.0514,0.0517,0.0568,0.0633,0.0723,0.085,0.0986,0.1175,0.1235,0.1467,0.1536,0.1702,0.1824,0.1964,0.1975,0.1996,0.2033,0.2208,0.2203,0.2365,0.2387,0.2407,0.2161,0,0,0,0,0]},{"header":{"parameterUnit":"m.s-1","parameterCategory":2,"la1":30.2991,"la2":30.254,"lo1":-89.0895,"lo2":-89.0444,"dy":0.0017,"dx":0.0017,"nx":28,"ny":28,"refTime":"2024-08-02T03:00:00:Z","depth":"4","parameterNumber":3,"parameterNumberName":"V-component_of_CURRENTS"},"data":[0,0,0,0,0,0,0,0,0,0,0,0,0,0,0,0,0,0,0,0,0,0,0,0,0,0,0,0,0,0,0,0,0,0,0,0,0,0,0,0,0,0,0,0,0,0,0,0,0,0,0,0,0,0,0,0,0,0,0.0128,0.0128,0,0.0159,0.0159,0.0159,0.0167,0.0167,0.0167,0.0167,0.0096,0.0094,0.0092,0,0,0,0,0,0,0,0,0,0,0,0,0,0.0071,0.0071,0.0128,0.0128,0.0129,0.0159,0.0159,0.0159,0.0167,0.0167,0.0167,0.0167,0.0097,0.0095,0.0092,0,0,0,0,0,0,0,0,0,0,0,0,0,0.0096,0.0072,0.0127,0.0138,0.0139,0.0159,0.0159,0.0159,0.0167,0.0167,0.0167,0.0167,0.0097,0.0095,0.0092,0.0075,0,0,0.0083,0.0082,0,0,0,0,0,0,0,0,0.0094,0.0098,0.0136,0.0137,0.0139,0.0161,0.0113,0.0127,0.0167,0.0154,0.0167,0.0167,0.011,0.0106,0.011,0.0072,0.0069,0.0083,0.0081,0.008,0.0079,0,0,0,0,0,0,0,0.0093,0.0096,0.0138,0.0136,0.0138,0.014,0.0143,0.0116,0.0128,0.0155,0.0156,0.0163,0.011,0.0113,0.0108,0.0067,0.0083,0.0081,0.0079,0.0078,-0.0003,-0.0003,0,0,0,0,0,0,0.0094,0.0095,0.0137,0.0139,0.0119,0.0141,0.0145,0.0152,0.013,0.0129,0.0163,0.0163,0.0118,0.0112,0.0106,0.0079,0.008,0.0078,0.0076,-0.0002,-0.0003,-0.0003,0,0,0,0,0,0,0.0092,0.0097,0.0135,0.0119,0.0125,0.0142,0.015,0.0153,0.017,0.0138,0.0134,0.018,0.0117,0.011,0.0072,0.0076,0.0076,0.0074,-0.0002,-0.0002,-0.0003,0.0028,0,0,0,0,0,0,0.0091,0.0096,0.0102,0.0119,0.0126,0.0157,0.0151,0.0153,0.0174,0.0175,0.015,0.0144,0.0117,0.0076,0.0069,0.0072,0.0072,-0.0001,-0.0002,-0.0003,0.0028,0.0029,0.003,0,0,0,0,0,0.0088,0.0105,0.0102,0.0108,0.0133,0.0158,0.0161,0.0171,0.0175,0.0186,0.0152,0.0145,0.0066,0.0073,0.0065,0.0068,-0.0001,-0.0002,-0.0003,0.0028,0.0029,0.003,0,0,0,0,0,0,0.0087,0.0108,0.0105,0.0128,0.0143,0.016,0.0175,0.0182,0.0169,0.0167,0.0133,0.0123,0.0089,0.0073,0.0082,0.0041,0.0034,0.0032,0.006,0.0061,0.0062,0.0096,0.0069,0,0,0,0,0,0.0088,0.0105,0.0121,0.0139,0.0148,0.0162,0.0175,0.0184,0.0177,0.0175,0.0154,0.0122,0.0078,0.0066,0.0029,0.001,-0.0008,0.0007,0.0008,0.0009,0.0031,-0.0015,-0.0016,-0.0007,-0.0007,-0.0007,0,0,0.0091,0.0106,0.0115,0.0139,0.0152,0.0178,0.017,0.0198,0.0213,0.0165,0.0169,0.0121,0.007,0.0039,0.0026,0.0029,-0.0004,0.0008,0.0009,0.0031,-0.0016,-0.0017,-0.0018,-0.0007,-0.0007,-0.0007,0,0,0.012,0.0122,0.015,0.0166,0.0192,0.0197,0.0209,0.0229,0.0229,0.022,0.0178,0.0133,0.0094,0.0053,0.0026,0.0012,-0.0006,0.0004,0.0046,0.0,-0.0001,-0.0001,-0.0026,-0.003,0.0014,0.0014,0.0014,0,0.0125,0.0164,0.0161,0.0196,0.022,0.021,0.0251,0.0246,0.0248,0.0244,0.0226,0.0146,0.01,0.0052,0.0044,0.0016,-0.0004,0.0046,0.0003,0.0001,0.0,-0.0025,-0.0029,0.0015,0.0015,0.0015,0.0015,0,0.0177,0.0209,0.023,0.0266,0.0284,0.0318,0.0315,0.0321,0.0313,0.0301,0.0257,0.0182,0.0144,0.011,0.0072,0.0039,0.0029,0.0001,0.0005,0.0001,-0.0026,-0.003,0.0017,0.0017,0.0016,0.0016,0,0,0.0196,0.0256,0.0263,0.0302,0.0329,0.0356,0.0368,0.0379,0.0392,0.0349,0.0345,0.0254,0.0219,0.0186,0.0124,0.0081,0.0041,0.0049,0.0046,0.0035,-0.0042,-0.0055,-0.0061,0.0004,0.0003,0.0003,-0.0057,0,0.0244,0.0323,0.0336,0.0409,0.0457,0.0452,0.0469,0.0468,0.0446,0.0429,0.0337,0.0304,0.0245,0.0223,0.0166,0.0061,0.0031,0.0061,-0.0045,-0.0047,-0.005,-0.0067,0.0001,-0.0061,-0.0062,-0.0063,-0.0063,0,0.03,0.0349,0.0433,0.0503,0.0521,0.0559,0.0591,0.0606,0.0562,0.0541,0.0483,0.0408,0.0324,0.0276,0.0129,0.0152,0.0077,-0.0001,-0.0006,-0.0025,-0.0068,-0.0059,-0.0072,-0.0071,-0.0071,-0.007,-0.007,0,0.0335,0.0421,0.0493,0.0519,0.0584,0.0623,0.0655,0.0649,0.0671,0.0619,0.0609,0.0491,0.0436,0.0313,0.015,0.0145,-0.0015,-0.0045,-0.012,-0.0121,-0.0104,-0.0103,-0.012,-0.012,-0.012,-0.0119,-0.0119,0,0.0395,0.0459,0.0525,0.0569,0.0662,0.0688,0.077,0.077,0.0774,0.079,0.0681,0.0643,0.0445,0.0317,0.0175,0.001,0.0009,-0.0105,-0.014,-0.0091,-0.0087,-0.0108,-0.0106,-0.0122,-0.0121,-0.0121,-0.012,0,0.0443,0.0483,0.0576,0.0655,0.0691,0.0764,0.0868,0.0914,0.0907,0.0919,0.0908,0.0761,0.0591,0.039,0.0173,0.0057,-0.0109,-0.0157,-0.0075,-0.0106,-0.0186,-0.0181,-0.024,-0.0241,-0.0242,-0.0243,-0.0243,0,0.0482,0.0529,0.0633,0.0699,0.0752,0.0864,0.0938,0.0982,0.1014,0.0983,0.0967,0.0824,0.0702,0.0389,0.0175,-0.0087,-0.0123,-0.0193,-0.02,-0.0171,-0.0199,-0.0193,-0.0188,-0.0245,-0.0245,-0.0245,-0.0245,0,0.0541,0.0569,0.0634,0.0751,0.0853,0.0973,0.1065,0.1096,0.1123,0.112,0.1022,0.0854,0.0656,0.0391,0.0191,-0.0002,-0.0151,-0.0202,-0.0202,-0.0209,-0.0177,-0.0203,-0.0196,-0.0248,-0.0248,-0.0247,-0.0247,0,0.0577,0.0628,0.0688,0.0799,0.0913,0.1018,0.1087,0.1117,0.1152,0.1103,0.1069,0.0859,0.0739,0.0436,0.0241,0.0052,0.0006,-0.0048,-0.0057,-0.0056,0.0001,0.0069,0.0051,0,0,0,0,0,0.0613,0.0659,0.0737,0.0844,0.0942,0.1019,0.1126,0.1173,0.1191,0.1138,0.111,0.0926,0.0628,0.0479,0.0291,0.0213,-0.0036,-0.0015,-0.0104,-0.0264,-0.0261,-0.0228,0,0,0,0,0,0,0.0643,0.071,0.0728,0.0831,0.0912,0.1034,0.1114,0.1147,0.1103,0.1093,0.0928,0.0876,0.0571,0.0733,0.0282,0.0224,0.0142,-0.015,-0.0154,-0.0266,-0.0263,-0.026,-0.0225,0,0,0,0,0]}]]